This demonstration page uses our WeatherBlox Daily Observations layout. Learn more.

Left ArrowRight Arrow

Hourly Observations for October 3, 2022

Temp ( °F °C ) Dew Point ( °F °C ) Humidity (%) Winds ( mph kmh ) Pressure ( in mb ) Visibility ( mi km ) Precip ( " mm )
12:53 am 00:53 Cloudy 58 14.4 51 10.6 78 78 Calm 30.07 1018 10 16 0.00 0.00
1:53 am 01:53 Clear 57 13.9 51 10.6 80 80 Calm 30.07 1018 10 16 0.00 0.00
2:53 am 02:53 Cloudy 56 13.3 51 10.6 84 84 Calm 30.07 1018 10 16 0.00 0.00
3:53 am 03:53 Partly Cloudy 55 12.8 51 10.6 86 86 Calm 30.07 1018 10 16 0.00 0.00
4:53 am 04:53 Clear 53 11.7 50 10 89 89 Calm 30.08 1019 10 16 0.00 0.00
5:53 am 05:53 Clear 52 11.1 50 10 93 93 Calm 30.09 1019 10 16 0.00 0.00
6:53 am 06:53 Clear 51 10.6 50 10 96 96 Calm 30.10 1019 10 16 0.00 0.00
7:53 am 07:53 Sunny 50 10 49 9.4 96 96 Calm 30.12 1020 10 16 0.00 0.00
8:53 am 08:53 Sunny 55 12.8 52 11.1 89 89 Calm 30.14 1021 10 16 0.00 0.00
9:53 am 09:53 Sunny 62 16.7 53 11.7 72 72 NE 3 6 30.14 1021 10 16 0.00 0.00
10:53 am 10:53 Sunny 66 18.9 51 10.6 59 59 ENE 6 9 30.14 1021 10 16 0.00 0.00
11:53 am 11:53 Sunny 70 21.1 52 11.1 53 53 VRB 7 11 30.14 1021 10 16 0.00 0.00
12:53 pm 12:53 Sunny 72 22.2 52 11.1 49 49 NE 7 11 30.12 1020 10 16 0.00 0.00
1:53 pm 13:53 Sunny 73 22.8 52 11.1 48 48 S 6 9 30.09 1019 10 16 0.00 0.00
2:53 pm 14:53 Mostly Cloudy 75 23.9 52 11.1 45 45 NW 7 11 30.06 1018 10 16 0.00 0.00
3:53 pm 15:53 Mostly Cloudy 74 23.3 52 11.1 46 46 VRB 3 6 30.05 1018 10 16 0.00 0.00
4:53 pm 16:53 Mostly Sunny 77 25 52 11.1 42 42 VRB 6 9 30.04 1017 10 16 0.00 0.00
5:53 pm 17:53 Mostly Sunny 74 23.3 53 11.7 48 48 NW 6 9 30.04 1017 10 16 0.00 0.00
6:53 pm 18:53 Sunny 73 22.8 53 11.7 50 50 NW 6 9 30.05 1018 10 16 0.00 0.00
7:53 pm 19:53 Clear 69 20.6 54 12.2 59 59 NW 5 7 30.06 1018 10 16 0.00 0.00
8:53 pm 20:53 Clear 66 18.9 54 12.2 65 65 NNW 5 7 30.07 1018 10 16 0.00 0.00
9:53 pm 21:53 Clear 64 17.8 54 12.2 70 70 N 7 11 30.09 1019 10 16 0.00 0.00
10:53 pm 22:53 Mostly Clear 62 16.7 53 11.7 72 72 Calm 30.10 1019 10 16 0.00 0.00
11:53 pm 23:53 Mostly Clear 59 15 53 11.7 81 81 Calm 30.10 1019 10 16 0.00 0.00

Powered by AerisWeather